Temp
-4 -4 -5 -5 -5 -5 -5 -5 -5 -5 -5 -5 -5 -5 -5 -5 -5 -5 -5 -5 -5 -4 -4 -4 -4 -5 -4
-4 -5 -5 -5 -6 -6 -6 -6 -6 -6 -6 -6 -6 -6 -6 -5 -5 -6 -6 -6 -6 -6 -6 -6 -5 -5 -5
-5 -5 -6 -6 -6 -6 -6 -6 -7 -7 -7 -7 -7 -7 -7 -7 -6 -7 -7 -7 -6 -7 -7 -7 -7 -7 -7
-6 -6 -7 -7 -7 -7 -7 -7 -7 -7 -7 -8 -8 -8 -8 -8 -8 -7 -8 -8 -8 -8 -8 -7 -7 -8 -8
-7 -7 -7 -7 -7 -8 -8 -8 -8 -8 -8 -8 -9 -8 -8 -9 -9 -9 -9 -9 -9 -9 -8 -8 -8 -8 -8
-7 -7 -7 -8 -8 -8 -8 -8 -9 -9 -9 -10 -9 -9 -9 -9 -10 -10 -10 -10 -10 -9 -9 -9 -9 -9 -9
-8 -8 -8 -9 -9 -9 -9 -10 -10 -10 -9 -10 -10 -10 -10 -10 -10 -10 -10 -10 -10 -10 -10 -10 -10 -10 -10
-9 -9 -9 -10 -10 -10 -10 -10 -10 -10 -10 -10 -10 -10 -10 -11 -11 -11 -10 -11 -11 -11 -11 -11 -11 -11 -11
-10 -10 -10 -10 -11 -11 -11 -11 -11 -11 -11 -11 -11 -10 -11 -11 -11 -11 -12 -12 -12 -12 -12 -12 -12 -12 -12
-11 -11 -11 -11 -11 -11 -11 -11 -11 -11 -12 -12 -12 -12 -11 -11 -12 -12 -12 -12 -12 -12 -12 -13 -13 -12 -12
-12 -12 -11 -12 -12 -12 -12 -12 -12 -12 -12 -12 -12 -12 -12 -12 -12 -12 -13 -13 -13 -13 -13 -13 -13 -13 -13
-12 -12 -12 -12 -12 -12 -12 -13 -13 -13 -13 -13 -13 -13 -13 -13 -13 -13 -13 -13 -13 -14 -14 -14 -14 -14 -14
-12 -12 -12 -13 -13 -13 -13 -13 -13 -14 -14 -14 -14 -13 -13 -13 -13 -13 -14 -14 -14 -14 -14 -14 -14 -15 -15
-13 -13 -13 -14 -14 -14 -14 -14 -14 -14 -14 -14 -14 -14 -14 -14 -14 -14 -15 -14 -15 -15 -15 -15 -15 -15 -16
-13 -14 -14 -14 -14 -14 -14 -14 -14 -14 -15 -15 -15 -15 -15 -15 -15 -15 -15 -15 -16 -16 -16 -16 -16 -16 -17
-14 -14 -14 -14 -14 -14 -14 -14 -14 -15 -15 -15 -15 -15 -15 -16 -16 -16 -16 -16 -16 -16 -17 -17 -16 -17 -18
-14 -14 -14 -15 -15 -15 -15 -15 -15 -15 -15 -16 -16 -16 -16 -15 -16 -17 -17 -17 -17 -17 -18 -18 -18 -19 -20
Height
3155 3154 3154 3153 3153 3152 3151 3151 3150 3150 3150 3149 3148 3147 3146 3145 3144 3144 3142 3141 3140 3139 3137 3135 3133 3132 3131
3147 3147 3147 3146 3146 3146 3145 3145 3144 3143 3142 3142 3141 3140 3139 3138 3137 3135 3134 3133 3131 3129 3128 3127 3125 3123 3122
3140 3140 3140 3140 3140 3139 3139 3138 3137 3136 3136 3135 3133 3132 3131 3130 3129 3127 3126 3125 3123 3121 3119 3118 3117 3115 3113
3134 3134 3133 3133 3133 3133 3132 3131 3130 3129 3129 3127 3126 3125 3124 3123 3121 3120 3119 3117 3115 3113 3111 3109 3108 3106 3104
3127 3127 3127 3126 3126 3125 3125 3124 3123 3123 3122 3121 3120 3118 3116 3115 3114 3113 3111 3109 3107 3106 3104 3102 3100 3097 3096
3121 3121 3121 3120 3120 3119 3119 3118 3117 3116 3115 3114 3113 3111 3110 3109 3108 3106 3103 3102 3100 3098 3096 3094 3092 3088 3086
3116 3115 3115 3114 3114 3113 3113 3112 3111 3108 3108 3109 3106 3104 3102 3101 3099 3097 3095 3093 3091 3089 3087 3085 3082 3080 3077
3110 3109 3108 3108 3107 3106 3105 3105 3104 3103 3100 3100 3099 3098 3096 3093 3091 3089 3087 3085 3083 3080 3078 3076 3074 3071 3069
3103 3102 3101 3101 3100 3099 3098 3098 3096 3096 3092 3090 3090 3089 3088 3086 3083 3081 3079 3077 3075 3072 3070 3067 3065 3062 3060
3097 3095 3094 3094 3092 3092 3091 3089 3088 3088 3086 3084 3083 3081 3080 3080 3078 3076 3072 3069 3067 3064 3061 3058 3055 3052 3050
3089 3088 3087 3086 3085 3084 3083 3082 3081 3080 3078 3077 3075 3073 3071 3069 3070 3068 3065 3062 3059 3056 3052 3049 3046 3042 3039
3082 3081 3080 3079 3078 3077 3076 3075 3074 3073 3072 3068 3066 3065 3063 3062 3059 3059 3056 3053 3050 3047 3044 3040 3037 3032 3028
3074 3074 3073 3072 3071 3070 3069 3068 3067 3065 3063 3061 3058 3056 3054 3052 3049 3048 3044 3044 3041 3038 3034 3030 3026 3022 3018
3067 3066 3066 3065 3064 3063 3062 3060 3059 3058 3054 3051 3049 3047 3045 3043 3039 3037 3034 3030 3030 3027 3022 3018 3014 3011 3006
3060 3059 3059 3057 3056 3055 3053 3052 3050 3049 3049 3044 3040 3038 3035 3033 3031 3028 3024 3021 3017 3013 3010 3006 3003 2999 2994
3051 3051 3050 3049 3048 3046 3044 3043 3041 3040 3038 3037 3034 3030 3026 3024 3019 3016 3014 3010 3006 3002 2997 2992 2990 2988 2983
3043 3042 3041 3040 3038 3038 3036 3034 3032 3030 3028 3026 3023 3019 3016 3015 3014 3009 3004 2999 2995 2991 2986 2982 2977 2976 2970
Wind_Speed
31 31 32 32 31 30 29 29 30 30 31 32 32 33 34 35 35 35 35 36 36 37 38 38 39 39 40
30 31 30 29 29 28 28 29 30 31 32 32 32 33 35 36 36 37 38 38 38 38 38 38 39 39 40
29 29 29 29 29 29 29 30 31 33 33 34 34 34 34 34 34 35 35 35 36 36 36 36 37 37 37
27 28 28 28 30 31 31 32 32 32 32 32 31 32 32 32 32 32 32 33 34 35 35 35 35 36 36
25 25 27 27 28 29 29 30 29 29 29 29 29 30 30 30 30 31 32 33 34 35 36 36 37 38 38
22 23 24 25 26 27 27 27 28 29 28 29 29 31 32 31 32 32 34 35 36 37 38 38 39 40 41
22 23 24 25 26 27 27 28 29 31 31 29 33 33 34 34 35 36 36 37 38 38 39 38 38 38 39
24 25 26 27 28 28 29 30 31 31 34 33 33 34 34 35 35 35 34 33 33 33 34 35 35 36 37
25 26 28 29 29 30 31 31 32 32 34 36 34 33 31 29 30 31 32 33 34 35 36 37 38 38 39
26 27 28 29 30 30 31 32 33 32 30 31 30 31 31 30 31 32 33 34 36 36 37 37 38 39 40
27 28 29 30 31 31 32 30 29 27 29 30 31 32 34 35 31 31 32 33 34 35 36 38 40 42 44
29 30 31 31 30 29 28 29 29 30 30 32 33 33 34 33 34 32 31 32 34 35 38 40 42 44 44
31 32 30 28 27 28 29 31 31 31 32 32 33 34 35 35 36 35 36 35 35 37 40 42 43 43 44
29 27 26 27 28 30 30 31 31 30 32 33 34 36 36 36 38 38 38 40 39 39 42 43 44 44 46
26 27 28 29 30 31 31 32 32 32 30 33 37 37 38 39 38 38 40 41 41 43 45 45 46 45 45
28 28 29 31 31 32 33 34 34 35 35 34 35 37 39 39 40 41 41 42 43 45 46 49 49 45 42
29 30 32 32 33 33 34 36 36 37 37 37 37 39 41 40 39 38 41 43 44 45 46 47 48 44 42
Wind_Direction
269 271 274 276 277 278 277 275 275 275 276 277 278 278 278 279 280 282 282 283 282 282 282 282 283 285 286
272 273 274 276 276 275 275 275 275 276 277 278 278 279 280 280 281 281 282 283 283 283 284 284 282 283 284
272 273 274 274 275 275 275 275 276 277 278 278 278 278 279 280 280 280 282 284 284 283 283 283 283 283 282
270 271 272 273 274 275 276 277 278 279 280 281 282 281 281 282 282 281 282 282 283 284 285 285 286 285 285
269 271 272 274 275 276 277 278 280 281 282 281 282 282 282 283 284 285 285 284 285 286 287 287 288 288 288
274 274 275 275 276 277 278 279 279 279 280 283 282 283 284 286 287 286 286 286 287 287 287 287 287 287 288
273 274 276 275 275 275 276 277 278 280 281 282 284 286 288 289 288 288 288 288 288 288 289 290 289 289 289
272 273 274 275 276 277 278 279 281 282 283 282 282 283 285 286 287 288 289 289 290 292 292 293 293 293 293
274 274 276 277 278 279 280 281 282 283 285 286 287 286 287 288 289 291 292 293 292 292 293 294 294 293 293
273 274 276 277 279 280 281 282 284 284 284 285 288 289 287 285 288 289 290 291 292 294 294 294 294 295 295
274 275 277 278 280 281 283 283 284 285 288 287 287 288 289 291 291 291 291 291 292 292 292 294 295 295 295
274 276 277 279 281 280 281 284 287 289 289 290 291 291 291 293 294 293 293 292 291 293 295 295 296 297 297
274 275 276 276 277 280 283 286 288 290 290 290 290 292 294 295 295 296 296 292 295 297 298 298 298 296 296
272 272 272 274 277 280 283 285 287 289 291 292 292 293 294 296 297 299 299 299 301 302 302 301 300 300 300
271 274 276 277 280 282 284 286 288 289 288 289 292 293 295 296 296 297 298 301 303 304 303 303 302 303 302
275 277 279 280 282 284 288 289 289 289 289 287 287 289 291 294 297 298 300 301 303 303 304 303 303 304 302
277 278 280 282 284 286 286 286 287 288 288 289 289 289 289 291 291 294 299 301 302 302 302 302 302 304 300